EHI
0 0 0 0 0 0 0 0 0 0 0 0 0 0 0 0 0 0 0 0 0 0 0 0 0 0 0 0 0 0 0 0 0 0 0 0 0 0 0 0 0 0 0
0 0 0 0 0 0 0 0 0 0 0 0 0 0 0 0 0 0 0 0 0 0 0 0 0 0 0 0 0 0 0 0 0 0 0 0 0 0 0 0 0 0 0
0 0 0 0 0 0 0 0 0 0 0 0 0 0 0 0 0 0 0 0 0 0 0 0 0 0 0 0 0 0 0 0 0 0 0 0 0 0 0 0 0 0 0
0 0 0 0 0 0 0 0 0 0 0 0 0 0 0 0 0 0 0 0 0 0 0 0 0 0 0 0 0 0 0 0 0 0 0 0 0 0 0 0 0 0 0
0 0 0 0 0 0 0 0 0 0 0 0 0 0 0 0 0 0 0 0 0 0 0 0 0 0 0 0 0 0 0 0 0 0 0 0 0 0 0 0 0 0 0
0 0 0 0 0 0 0 0 0 0 0 0 0 0 0 0 0 0 0 0 0 0 0 0 0 0 0 0 0 0 0 0 0 0 0 0 0 0 0 0 0 0 0
0 0 0 0 0 0 0 0 0 0 0 0 0 0 0 0 0 0 0 0 0 0 0 0 0 0 0 0 0 0 0 0 0 0 0 0 0 0 0 0 0 0 0
0 0 0 0 0 0 0 0 0 0 0 0 0 0 0 0 0 0 0 0 0 0 0 0 0 0 0 0 0 0 0 0 0 0 0 0 0 0 0 0 0 0 0
0 0 0 0 0 0 0 0 0 0 0 0 0 0 0 0 0 0 0 0 0 0 0 0 0 0 0 0 0 0 0 0 0 0 0 0 0 0 0 0 0 0 0
0 0 0 0 0 0 0 0 0 0 0 0 0 0 0 0 0 0 0 0 0 0 0 0 0 0 0 0 0 0 0 0 0 0 0 0 0 0 0 0 0 0 0
0 0 0 0 0 0 0 0 0 0 0 0 0 0 0 0 0 0 0 0 0 0 0 0 0 0 0 0 0 0 0 0 0 0 0 0 0 0 0 0 0 0 0
0 0 0 0 0 0 0 0 0 0 0 0 0 0 0 0 0 0 0 0 0 0 0 0 0 0 0 0 0 0 0 0 0 0 0 0 0 0 0 0 0 0 0
0 0 0 0 0 0 0 0 0 0 0 0 0 0 0 0 0 0 0 0 0 0 0 0 0 0 0 0 0 0 0 0 0 0 0 0 0 0 0 0 0 0 0
0 0 0 0 0 0 0 0 0 0 0 0 0 0 0 0 0 0 0 0 0 0 0 0 0 0 0 0 0 0 0 0 0 0 0 0 0 0 0 0 0 0 0
0 0 0 0 0 0 0 0 0 0 0 0 0 0 0 0 0 0 0 0 0 0 0 0 0 0 0 0 0 0 0 0 0 0 0 0 0 0 0 0 0 0 0
0 0 0 0 0 0 0 0 0 0 0 0 0 0 0 0 0 0 0 0 0 0 0 0 0 0 0 0 0 0 0 0 0 0 0 0 0 0 0 0 0 0 0
0 0 0 0 0 0 0 0 0 0 0 0 0 0 0 0 0 0 0 0 0 0 0 0 0 0 0 0 0 0 0 0 0 0 0 0 0 0 0 0 0 0 0
0 0 0 0 0 0 0 0 0 0 0 0 0 0 0 0 0 0 0 0 0 0 0 0 0 0 0 0 0 0 0 0 0 0 0 0 0 0 0 0 0 0 0
0 0 0 0 0 0 0 0 0 0 0 0 0 0 0 0 0 0 0 0 0 0 0 0 0 0 0 0 0 0 0 0 0 0 0 0 0 0 0 0 0 0 0
0 0 0 0 0 0 0 0 0 0 0 0 0 0 0 0 0 0 0 0 0 0 0 0 0 0 0 0 0 0 0 0 0 0 0 0 0 0 0 0 0 0 0
0 0 0 0 0 0 0 0 0 0 0 0 0 0 0 0 0 0 0 0 0 0 0 0 0 0 0 0 0 0 0 0 0 0 0 0 0 0 0 0 0 0 0
0 0 0 0 0 0 0 0 0 0 0 0 0 0 0 0 0 0 0 0 0 0 0 0 0 0 0 0 0 0 0 0 0 0 0 0 0 0 0 0 0 0 0
0 0 0 0 0 0 0 0 0 0 0 0 0 0 0 0 0 0 0 0 0 0 0 0 0 0 0 0 0 0 0 0 0 0 0 0 0 0 0 0 0 0 0
0 0 0 0 0 0 0 0 0 0 0 0 0 0 0 0 0 0 0 0 0 0 0 0 0 0 0 0 0 0 0 0 0 0 0 0 0 0 0 0 0 0 0
0 0 0 0 0 0 0 0 0 0 0 0 0 0 0 0 0 0 0 0 0 0 0 0 0 0 0 0 0 0 0 0 0 0 0 0 0 0 0 0 0 0 0
0 0 0 0 0 0 0 0 0 0 0 0 0 0 0 0 0 0 0 0 0 0 0 0 0 0 0 0 0 0 0 0 0 0 0 0 0 0 0 0 0 0 0
Wind_Speed
7 6 6 5 4 4 4 3 4 4 3 4 3 4 3 3 3 2 4 3 4 3 3 3 3 4 3 3 3 3 4 4 6 5 3 3 4 5 3 4 5 6 6
7 6 6 5 5 5 4 4 4 3 3 4 3 4 3 3 3 3 3 3 4 4 4 3 3 2 4 4 3 4 4 4 5 6 5 4 6 5 5 5 5 5 6
7 7 7 6 5 5 4 4 4 4 3 3 3 3 3 3 3 4 4 4 3 3 4 4 4 4 4 3 4 4 4 4 5 5 6 5 5 5 5 6 6 5 6
8 8 7 7 6 5 4 4 4 4 4 4 4 4 4 4 4 4 4 4 4 3 3 3 4 4 4 4 4 4 4 5 5 5 5 5 5 5 5 5 5 5 5
9 9 8 7 6 5 5 5 5 4 5 5 5 5 4 4 4 5 5 4 4 4 4 3 3 3 5 5 5 5 5 5 4 4 5 5 5 4 4 4 5 5 6
10 9 7 7 6 6 6 5 5 5 6 5 6 6 5 4 2 4 7 6 5 5 4 4 3 4 4 6 6 7 7 7 6 5 5 6 6 5 5 5 5 5 5
10 9 8 8 7 7 6 6 6 7 6 6 7 6 7 5 4 6 8 8 7 6 5 5 3 3 4 5 5 8 8 9 9 8 8 7 7 6 6 7 6 7 7
11 10 9 8 7 7 6 6 7 6 6 6 7 7 7 6 5 7 7 10 8 6 6 6 6 5 3 5 6 6 6 5 5 7 7 7 7 6 6 7 7 7 8
11 10 9 9 8 7 7 7 6 5 6 6 6 6 7 7 6 6 8 8 7 7 6 6 6 6 0 3 6 6 6 5 4 7 8 9 10 9 8 6 6 6 6
11 10 9 8 7 7 6 6 5 5 5 6 5 6 7 7 2 4 8 7 7 6 5 5 4 5 2 3 6 6 6 5 5 5 6 8 9 8 9 9 7 6 6
10 9 8 7 7 6 5 4 4 4 4 5 5 5 5 5 3 3 5 6 6 6 5 4 2 4 4 5 7 6 5 7 7 6 5 5 5 5 5 6 6 6 6
9 8 8 7 6 4 4 3 3 3 4 4 4 4 3 2 2 2 3 6 7 6 5 4 0 3 3 4 4 4 5 6 5 4 4 5 4 4 4 5 6 6 7
10 9 7 7 5 4 4 4 3 2 3 3 2 3 2 2 1 2 4 5 5 5 3 3 3 1 4 4 1 3 5 4 3 4 4 4 4 5 5 5 6 6 7
11 9 8 7 6 5 3 2 1 1 1 1 2 2 2 2 3 3 3 2 4 5 3 3 4 2 2 2 2 2 2 3 4 4 4 4 4 4 4 4 5 4 5
11 9 8 7 6 5 4 2 2 3 3 2 2 2 3 3 5 8 5 3 3 2 1 1 1 1 0 1 2 2 3 3 3 3 4 4 5 5 5 4 4 4 5
10 9 7 6 6 6 6 6 7 6 8 7 6 5 3 5 5 5 6 6 6 3 0 1 1 2 2 2 3 3 3 4 4 4 4 4 5 5 5 5 4 5 5
11 9 7 7 7 7 6 7 7 7 7 7 7 7 7 6 6 5 5 5 5 3 2 3 3 3 3 3 3 3 4 4 4 4 4 5 5 5 5 5 5 5 6
11 9 8 7 7 6 6 6 5 5 6 5 6 7 6 7 7 6 3 1 4 4 4 3 3 3 3 3 3 4 4 4 4 4 5 5 5 6 6 6 6 7 7
10 9 8 7 7 7 6 6 5 5 4 4 4 6 5 4 5 5 3 3 4 4 3 3 3 3 3 3 3 3 3 4 5 5 5 6 6 6 6 7 7 8 8
9 11 10 9 8 8 7 6 6 6 5 4 4 3 3 2 3 4 4 4 3 3 3 3 3 3 3 3 3 3 4 4 5 5 5 6 6 6 7 8 8 8 7
10 12 13 9 8 8 7 7 7 6 5 5 4 4 2 2 3 3 3 3 3 3 3 2 2 3 3 3 3 4 5 4 5 5 6 6 7 7 7 7 8 8 8
11 11 10 9 9 8 8 7 7 7 7 6 6 6 3 2 2 2 2 2 2 2 2 2 2 2 3 4 4 5 5 6 6 7 7 7 7 8 8 8 8 9 9
11 12 11 10 9 10 9 8 7 7 7 6 5 5 4 3 2 2 1 1 1 1 2 2 3 3 3 4 4 5 6 6 7 8 8 8 8 8 8 9 11 11 10
12 12 12 11 10 10 9 8 8 7 6 6 5 4 3 3 2 1 1 0 1 1 2 2 3 4 6 5 4 4 5 7 8 8 11 10 10 9 9 9 10 12 11
12 12 11 11 10 9 9 8 8 7 7 6 5 4 4 3 2 2 1 1 2 2 3 4 3 4 6 7 7 6 6 7 8 9 10 10 11 11 11 12 11 12 12
11 11 10 9 9 9 9 8 8 7 6 5 5 4 3 3 2 2 2 2 2 3 4 4 5 6 8 7 7 8 7 8 9 10 10 10 11 10 11 10 14 13 13
Wind_Direction
212 215 219 227 240 250 256 272 274 281 277 285 299 304 313 318 313 313 309 313 305 309 298 296 297 308 296 288 279 270 264 264 269 272 267 269 264 266 259 264 261 248 234
209 212 219 224 229 240 242 251 260 269 277 284 293 294 304 308 310 313 313 306 307 312 311 301 294 291 290 287 283 276 272 268 269 277 276 274 275 277 276 269 262 250 252
200 209 215 217 223 233 241 247 258 264 265 265 278 287 292 293 298 299 299 303 307 308 307 301 299 295 284 281 276 278 277 272 268 271 277 280 273 271 274 267 259 254 254
196 207 215 219 218 227 232 244 252 255 259 266 269 274 281 284 282 285 289 294 295 295 294 293 294 293 293 294 282 279 280 277 271 268 271 275 272 273 270 269 265 253 253
198 207 213 214 213 222 227 236 244 248 258 265 269 271 270 273 280 291 287 283 286 288 285 286 296 309 316 303 301 298 288 278 274 273 275 280 277 275 274 277 274 275 264
202 207 206 214 212 220 230 235 241 247 255 259 263 266 268 265 264 262 279 280 276 274 281 285 273 243 247 249 264 284 291 286 286 278 276 274 280 279 278 274 273 273 272
202 204 202 207 212 220 225 233 239 243 247 256 258 261 263 256 217 240 250 271 273 277 281 280 275 272 266 275 248 240 247 239 252 276 278 277 282 284 283 278 272 271 270
201 202 202 207 212 217 225 235 243 251 251 254 261 262 264 261 226 242 246 255 262 264 264 268 270 274 274 294 289 283 280 263 250 253 270 282 288 290 281 279 283 282 278
200 203 201 205 212 218 225 235 243 252 256 256 261 265 266 258 212 233 250 256 256 256 255 258 267 272 230 279 278 281 284 282 241 239 264 277 286 279 274 271 264 264 272
197 203 202 204 209 218 228 240 242 245 256 265 265 267 270 276 228 229 251 257 258 259 252 244 221 264 307 263 274 281 284 294 300 281 259 254 260 253 239 248 257 261 268
191 194 195 196 205 214 224 230 240 248 259 266 270 268 271 282 264 230 250 263 266 268 263 255 227 184 256 267 274 285 307 310 296 291 291 289 281 275 261 255 253 256 262
179 184 188 191 193 195 202 221 239 250 256 264 273 281 282 274 298 295 264 261 286 273 271 273 246 130 259 272 276 312 310 289 280 286 288 289 291 291 288 283 274 264 262
175 180 182 181 179 186 192 199 213 231 260 278 289 301 313 328 322 232 247 248 254 262 278 28 39 76 261 238 224 298 284 275 289 293 297 303 305 306 304 297 286 275 272
177 178 178 178 175 170 171 184 194 229 259 289 315 319 324 333 346 340 306 240 212 224 225 162 170 181 252 322 309 277 301 329 323 310 311 309 309 305 299 297 295 295 286
179 176 177 172 165 157 140 94 105 67 33 358 350 338 333 340 14 359 336 337 335 356 303 158 122 114 50 9 357 355 347 343 334 328 322 322 321 318 315 315 307 303 296
180 176 171 163 159 155 144 120 69 82 80 65 40 10 56 40 24 33 37 34 34 26 61 108 78 49 29 14 2 357 358 354 346 338 334 332 327 325 323 321 315 311 306
179 171 166 165 163 165 163 159 146 125 108 85 68 54 50 49 48 47 53 59 52 50 79 70 59 44 29 19 8 360 359 357 347 343 341 340 334 330 327 324 322 319 314
175 163 162 163 164 165 167 169 167 167 160 137 104 77 69 64 52 36 3 105 81 71 63 59 51 42 32 21 13 4 358 353 348 345 344 344 340 334 332 330 328 328 320
168 163 161 155 158 157 156 156 157 158 151 142 139 122 111 114 97 56 28 62 69 68 63 57 47 36 26 22 12 360 354 349 347 342 345 344 340 334 332 330 327 327 318
161 152 154 155 156 156 156 156 156 155 152 147 140 124 135 145 105 87 73 66 67 66 60 56 46 28 15 9 360 348 342 344 344 342 341 337 333 329 326 325 324 323 321
156 154 159 159 159 158 158 157 155 154 150 141 123 90 30 111 98 88 80 70 60 55 48 38 28 14 5 355 347 342 340 339 339 335 331 328 326 323 321 318 318 317 317
158 158 165 160 156 157 156 154 153 151 149 145 137 136 157 163 116 106 94 80 62 42 23 1 359 3 351 342 336 332 332 334 335 333 329 325 322 318 318 316 315 315 314
159 157 158 156 154 149 157 155 156 156 155 153 151 152 160 152 138 127 106 77 43 10 355 340 334 338 337 335 334 330 329 335 335 330 323 319 317 315 313 311 311 311 310
159 158 157 156 156 160 162 160 160 159 159 159 160 162 161 161 165 160 162 8 325 323 324 322 320 322 324 324 322 324 339 345 334 322 319 313 309 307 307 306 306 306 305
159 158 158 158 160 162 163 163 164 164 165 167 168 169 172 177 183 190 216 269 297 304 310 309 309 313 318 319 319 329 357 350 331 321 313 305 303 302 301 301 301 301 300
159 158 158 158 161 163 164 166 168 169 171 172 175 180 186 193 203 218 244 275 295 299 302 304 310 314 314 314 328 342 337 323 317 311 306 301 299 297 299 297 298 297 296